Flag for Germany Weather past 2 weeks in Garbsen, Lower Saxony, Germany

Now
50 °F

Clear.


Feels Like: 48 °F
Forecast: 51 / 59 °F
Wind: 6 mph from South

Location: Hannover

Current Time: Sep 24, 2014 at 3:20:45 AM

Latest Report: Sep 24, 2014 at 2:50 AM


Visibility: 10 mi

Pressure: 30.01 "Hg

Humidity: 82%

Dew point: 45 °F

Location of GarbsenLocation

Historic Weather in Garbsen — Graph

°F

Garbsen temperature yesterday

Maximum temperature yesterday: 61 °F (at 1:20 PM)
Minimum temperature yesterday: 43 °F (at 4:50 AM)
Average temperature yesterday: 52 °F

Past Weeks' High & Low Weather Summary

 TemperatureHumidityPressure
High75 °F (Sep 16, 3:20 PM)100% (Sep 10, 9:20 PM)30.21 "Hg (Sep 10, 9:20 PM)
Low43 °F (Sep 23, 4:50 AM)47% (Sep 17, 5:50 PM)29.86 "Hg (Sep 19, 5:50 AM)
Average60 °F84%30.03 "Hg
* Reported Sep 9 2:20 AM — Sep 24 2:20 AM, Garbsen, Weather by CustomWeather, © 2014

Note: Actual official high and low records may vary slightly from our data, if they occured in-between our weather recording intervals... More about our weather records

Advertising

Garbsen weather history for previous 24 hours

 ConditionsComfort  
Time TempWeatherWind HumidityBarometerVisibility
2:20 AM
Sep 24
50 °FClear.5 mph82%30.01 "Hg10 mi
1:50 AM48 °FClear.5 mph87%30.01 "Hg10 mi
1:20 AM48 °FClear.5 mph87%30.04 "Hg10 mi
12:50 AM50 °FClear.5 mph82%30.04 "Hg10 mi
12:20 AM52 °FClear.5 mph82%30.04 "Hg10 mi
11:50 PM
Sep 23
52 °FClear.6 mph82%30.04 "Hg10 mi
11:20 PM52 °FClear.5 mph82%30.04 "Hg10 mi
10:50 PM52 °FClear.5 mph82%30.04 "Hg10 mi
10:20 PM54 °FClear.3 mph77%30.04 "Hg10 mi
9:50 PM54 °FClear.3 mph77%30.07 "Hg10 mi
9:20 PM55 °FClear.5 mph72%30.07 "Hg10 mi
8:50 PM55 °FClear.5 mph77%30.07 "Hg10 mi
8:20 PM57 °FPassing clouds.5 mph72%30.07 "HgN/A
7:50 PM57 °FPassing clouds.5 mph72%30.07 "HgN/A
7:20 PM57 °FPassing clouds.5 mph67%30.07 "HgN/A
6:50 PM57 °FPartly sunny.5 mph67%30.07 "HgN/A
6:20 PM59 °FScattered clouds.6 mph63%30.07 "HgN/A
5:50 PM59 °FScattered clouds.6 mph63%30.07 "HgN/A
5:20 PM61 °FScattered clouds.8 mph55%30.07 "HgN/A
4:50 PM59 °FScattered clouds.6 mph63%30.07 "HgN/A
4:20 PM59 °FScattered clouds.7 mph59%30.09 "HgN/A
3:50 PM59 °FPartly sunny.10 mph63%30.09 "HgN/A
3:20 PM59 °FScattered clouds.7 mph59%30.09 "HgN/A
2:50 PM61 °FScattered clouds.6 mph55%30.09 "HgN/A
2:20 PM61 °FScattered clouds.7 mph55%30.12 "HgN/A
1:50 PM59 °FScattered clouds.6 mph55%30.12 "HgN/A
1:20 PM61 °FScattered clouds.7 mph55%30.12 "HgN/A
12:20 PM57 °FPassing clouds.7 mph59%30.12 "HgN/A
11:50 AM55 °FPassing clouds.7 mph63%30.15 "HgN/A
11:20 AM55 °FPassing clouds.5 mph59%30.12 "HgN/A
10:50 AM55 °FScattered clouds.5 mph72%30.15 "HgN/A
10:20 AM52 °FPassing clouds.6 mph82%30.15 "HgN/A
9:50 AM50 °FPassing clouds.7 mph88%30.15 "HgN/A
9:20 AM50 °FPartly sunny.8 mph88%30.12 "HgN/A
8:50 AM48 °FPartly sunny.6 mph94%30.12 "HgN/A
8:20 AM46 °FScattered clouds.3 mph93%30.12 "HgN/A
7:50 AM43 °FClear.3 mph93%30.12 "Hg10 mi
7:20 AM43 °FClear.6 mph93%30.12 "Hg10 mi
6:50 AM43 °FClear.5 mph93%30.12 "Hg10 mi
6:20 AM43 °FClear.5 mph93%30.09 "Hg10 mi
5:50 AM43 °FClear.6 mph93%30.09 "Hg10 mi
5:20 AM43 °FClear.6 mph93%30.09 "Hg10 mi
4:50 AM43 °FClear.7 mph93%30.09 "Hg10 mi
4:20 AM45 °FClear.7 mph87%30.09 "Hg10 mi
3:50 AM46 °FClear.6 mph87%30.09 "Hg10 mi
3:20 AM46 °FPassing clouds.6 mph93%30.09 "HgN/A
Weather by CustomWeather, © 2014

See weather overviewHow to use our weather pages